全球星 M049星 (GLOBALSTAR M049)

导读 | 星芒AI

GLOBALSTAR M049 是 Globalstar 卫星通信公司部署的一颗低轨移动通信卫星,属于其第二代卫星星座(Globalstar 2)的一部分。该卫星运行在约1414公里高度的近极地轨道,主要用于提供全球范围内的语音和数据通信服务,特别是在偏远地区和海上。M049 卫星采用先进通信技术,支持多种终端接入,增强了系统的可靠性和覆盖能力,是现代卫星通信网络的重要组成部分。

基本信息
目录编号:
25771
目录名称:
GLOBALSTAR M049
国际标识:
1999-031B
轨道中心:
EARTH
卫星名称:
全球星 M049星
卫星全名:
全球星 M049星 (GLOBALSTAR M049)
卫星状态:
在轨 (已飞行9686 天)
发射日期:
1999-06-10 UTC
国别 :
(GLOB)
星等 :
--
轨道信息
数据来源 国际轨道数据 AOE轨道数据
星历时间 2025-12-15T10:24:42+0800
22小时前
查看轨道信息
2025-12-14T12:00:00+0800
1天前
查看轨道信息
半长轴 8478.125km 8478.122km
偏心率 0.0002191 0.0002329
轨道倾角 51.984° 51.984°
近地点辐角 341.892° 345.661°
升交点赤经 144.025° 146.141°
平近点角 18.180° 234.208°
近地点 2098.132km 2098.012km
远地点 2101.848km 2101.962km
周期 129.482分钟 129.482分钟
每日圈数 11.121237 11.121243
详细信息
固有亮度:
5
最大亮度:
7.9
平衡模式:
三轴稳定
覆盖范围:
全球
运营商:
全球星公司
运营商所在国:
美国
使用方式:
暂无
卫星简介
全球星星座由48颗卫星加8颗备份星组成。这些卫星分布在8个倾角为52度的圆形轨道平面上,每个轨道平面6颗卫星,另有1 颗备用星。轨道高度约为1414km,传输时延和处理时延小于300ms,整个系统的覆盖区为南北纬70度以内的地区。该卫星已退役。
2D轨道图
3D轨道图
轨道高度分析图
轨道倾角分析图
轨道综合分析图
查看轨道综合分析图